Location: De Geer
(52.1637°N, 4.9129°E)
Time: 20:49:32
(UTC+00:00)

Daily predictions for brighter satellites

Satellite Brightness Start Highest point End
(mag) Time Altitude Azimuth Time Altitude Azimuth Time Altitude Azimuth
Cosmos 1844 Rocket 3.4 17:59:23 10° SSE 18:04:15 32° ESE 18:09:09 10° NE
NOSS 3-2 (C) 4.1 17:57:57 10° NW 18:05:13 79° NE 18:13:34 10° SE
Cosmos 372 Rocket 4.1 18:00:57 10° S 18:06:03 54° ESE 18:11:08 10° NNE
ATLAS CENTAUR R/B 3.7 18:07:18 10° NW 18:09:35 15° NNW 18:11:51 10° NNE
ISS -3.4 18:08:01 10° WSW 18:11:20 52° SSE 18:14:38 10° E
Cosmos 1844 4.4 18:06:51 10° SSE 18:11:43 30° ESE 18:16:33 10° NE
Cosmos 2034 Rocket 4.5 18:06:35 10° SSE 18:12:24 39° E 18:18:12 10° NNE
Lacrosse 4 Rocket 3.2 18:10:33 10° NNW 18:13:15 17° NNE 18:15:58 10° ENE
USA 186 3.2 18:11:51 10° ESE 18:14:24 21° ENE 18:16:59 10° NNE
Cosmos 1898 Rocket 4.3 18:10:22 10° SW 18:15:27 56° WNW 18:20:35 10° NNE
Meteor 1-12 Rocket 4.4 18:09:57 10° S 18:15:36 54° E 18:21:14 10° NNE
Cosmos 1300 Rocket 3.7 18:16:34 10° S 18:20:52 53° E 18:25:13 10° NNE
CENTAUR R/B 3.2 18:16:22 10° NW 18:24:15 88° NE 18:33:03 10° SE
Okean 1 Rocket 4.2 18:20:44 10° SE 18:24:16 23° E 18:27:49 10° NE
Sich 1 Rocket 3.6 18:20:39 10° S 18:25:11 87° E 18:29:48 10° NNE
Cosmos 1833 Rocket 3.6 18:20:35 10° NNW 18:25:38 32° NE 18:30:12 12° ESE
NOSS 2-2 (E) 3.4 18:22:05 10° SW 18:25:41 78° NW 18:29:58 10° NE
Cosmos 2298 Rocket 4.1 18:22:08 10° S 18:27:19 57° ESE 18:32:34 10° NNE
Resurs 01 Rocket 3.5 18:25:52 11° E 18:28:07 15° NE 18:30:38 10° NNE
Cosmos 1975 4.4 18:24:38 10° SW 18:28:31 42° WNW 18:32:24 10° N
Iridium 4 Rocket 4.5 18:24:30 10° SSW 18:29:41 57° W 18:35:19 10° N
CSL-04 Debris 4.3 18:26:10 10° SSE 18:31:34 85° WSW 18:37:00 10° NNW
Cosmos 1025 Rocket 3.1 18:28:44 10° N 18:33:10 89° W 18:37:33 10° S
CSL-04 Rocket 3.8 18:28:03 10° SSE 18:33:31 86° WSW 18:39:07 10° NNW
Cosmos 1766 4.5 18:32:08 10° SE 18:35:13 22° E 18:38:20 10° NE
Okean 2 Rocket 3.0 18:30:55 10° S 18:35:24 74° E 18:39:52 10° NNE
NOSS 2-2 (D) 3.3 18:31:58 10° SW 18:35:32 79° NW 18:39:44 10° NE
ATLAS 2AS CENTAUR R/B 3.7 18:28:57 10° S 18:35:34 30° ESE 18:42:08 10° NE
Cosmos 1937 Rocket 4.4 18:30:30 10° SW 18:35:36 52° WNW 18:40:42 10° NNE
YAOGAN 1 3.4 18:31:54 10° S 18:36:09 55° W 18:40:25 10° NNW
ATLAS 3B R/B 3.0 18:30:02 10° NW 18:36:40 53° NNE 18:42:35 14° ESE
Abrixas rocket 3.4 18:37:53 10° WSW 18:40:19 26° SSW 18:42:11 14° SE
CREW DRAGON DEMO-1 DEB 4.0 18:39:18 10° W 18:42:06 34° SSW 18:44:16 15° SE
Cosmos 1536 Rocket 3.6 18:38:27 10° N 18:42:57 87° E 18:47:26 10° S
Cosmos 1513 Rocket 4.5 18:36:49 10° S 18:43:02 85° E 18:49:13 10° N
Cosmos 1125 Rocket 3.6 18:42:49 10° S 18:47:58 53° ESE 18:53:09 10° NNE
SJ-6B 3.1 18:48:31 15° SE 18:51:20 43° ENE 18:54:59 10° N
CZ-4 R/B 3.5 18:50:07 10° SSW 18:53:52 31° W 18:57:37 10° NNW
Cosmos 2150 Rocket 4.0 18:49:28 10° SSW 18:54:53 83° ESE 19:00:24 10° NNE
Cosmos 1674 2.6 18:51:29 10° N 18:55:22 82° E 18:59:12 10° SSE
Cosmos 2026 Rocket 4.2 18:49:42 10° N 18:55:56 52° ENE 19:02:09 10° SSE
CZ-2C R/B 4.0 18:50:38 10° S 18:55:57 56° W 19:01:34 10° NNW
Cosmos 1092 Rocket 4.0 18:50:04 10° N 18:56:12 64° ENE 19:02:22 10° SSE
Cosmos 1464 Rocket 4.1 18:50:15 10° SSW 18:56:24 83° W 19:02:40 10° N
Cosmos 2285 Rocket 4.1 18:52:36 10° S 18:58:44 55° ESE 19:04:57 10° NNE
MOS 1 Rocket 3.0 18:57:26 10° NNE 19:01:52 80° ESE 19:06:09 10° S
FREGAT/IRIS 2.4 19:04:41 44° ESE 19:05:05 49° ENE 19:07:37 10° N
ARGOS 3.5 19:06:08 10° S 19:11:29 67° WSW 19:16:52 10° NNW
CZ-2C R/B 2.8 19:06:35 10° NNE 19:12:01 52° E 19:17:29 10° S
Cosmos 1340 Rocket 3.4 19:15:11 33° ESE 19:15:35 34° E 19:19:14 10° NNE
Cosmos 1733 3.3 19:13:47 12° S 19:17:15 51° E 19:21:00 10° NNE
Cosmos 2151 Rocket 4.2 19:13:41 10° SSW 19:18:07 61° WNW 19:22:37 10° N
Lacrosse 5 rocket 2.1 19:14:12 10° WNW 19:18:28 48° NNE 19:20:43 26° ENE
MOS 1 4.2 19:13:09 10° SSE 19:18:51 84° ENE 19:24:35 10° NNW
Cosmos 2082 Rocket 2.8 19:13:31 10° NNW 19:18:51 41° NE 19:21:17 27° E
DMSP B5D2-2 4.2 19:16:42 10° NNE 19:21:54 53° E 19:27:03 10° S
BREEZE-M R/B 3.9 19:14:41 10° WSW 19:23:28 46° S 19:24:25 36° SE
Meteor 1-15 Rocket 4.3 19:23:11 10° SSW 19:28:51 82° WNW 19:34:41 10° NNE
OBJECT-B 0.7 19:28:48 61° ESE 19:29:04 64° ENE 19:32:19 10° N
Cosmos 1805 3.2 19:25:15 10° S 19:29:10 85° W 19:33:07 10° N
Ariane Rocket 3.3 19:28:15 10° S 19:33:18 68° WSW 19:38:25 10° NNW
SL-08 RB Rocket 4.4 19:28:56 10° S 19:33:24 53° W 19:37:51 10° NNW
H-2A R/B 3.7 19:30:29 10° SSW 19:35:01 33° W 19:39:41 10° NNW
Cosmos 1269 Rocket 4.4 19:30:21 10° NNW 19:35:39 65° WSW 19:39:33 18° S
Cosmos 1626 2.2 19:36:58 10° NNW 19:40:40 72° W 19:42:02 36° S
Okean 1-7 Rocket 3.7 19:36:27 10° N 19:40:58 56° ENE 19:41:50 48° ESE
Terra 3.8 19:42:51 15° NE 19:42:51 15° NE 19:45:22 10° NNE
MetOp-A 4.4 19:40:20 15° S 19:44:51 69° WSW 19:50:14 10° NNW
COSMOS 2406 3.3 19:39:16 10° NNW 19:44:57 75° WSW 19:47:55 29° SSE
USA 186 3.6 19:42:34 14° SSW 19:44:57 31° W 19:47:57 10° NNW
Cosmos 1455 Rocket 3.7 19:47:18 38° ENE 19:47:18 38° ENE 19:50:33 10° NNE
Cosmos 1844 Rocket 3.4 19:42:26 10° SW 19:47:54 55° NW 19:53:26 10° NNE
ISS -3.7 19:44:39 10° W 19:47:46 73° WSW 19:47:46 73° WSW
SPOT 1/Viking Rocket 4.3 19:48:44 34° ENE 19:49:10 34° ENE 19:53:48 10° N
ATLAS CENTAUR R/B 3.6 19:48:08 10° NNW 19:49:54 13° N 19:51:16 11° NNE
Cosmos 2278 Rocket 2.4 19:51:32 44° ESE 19:51:58 45° ESE 19:57:20 10° NE
Lacrosse 4 Rocket 1.2 19:48:36 10° NNW 19:52:41 68° NE 19:52:52 67° ENE
Meteor 2-5 Rocket 4.5 19:49:27 10° NNW 19:54:57 53° W 20:00:32 10° S
Cosmos 1844 4.3 19:49:57 10° SW 19:55:34 59° NW 20:01:08 10° NNE
Meteor 1-22 Rocket 4.3 19:50:46 10° S 19:56:44 88° ESE 20:02:53 10° NNE
Meteor 1-24 Rocket 4.1 19:51:50 10° NNW 19:57:20 63° W 20:01:37 18° S
Cosmos 909 Rocket 4.0 19:51:07 10° NW 19:57:48 75° NE 19:59:55 44° ESE
Cosmos 2266 Rocket 4.1 19:53:40 10° N 19:59:33 49° ENE 20:00:34 45° ESE
Exosat Rocket 3.9 19:54:43 10° SW 19:59:51 63° WNW 20:04:57 10° NNE
SL-14 R/B 4.0 19:56:44 10° NNW 20:00:34 51° W 20:01:54 34° SSW
Meteor 2-19 Rocket 4.3 19:55:21 10° N 20:01:31 78° ENE 20:03:47 41° SSE
Okean 1 Rocket 4.1 19:57:33 10° SSW 20:01:53 48° WNW 20:06:16 10° N
NOSS 3-4 (A) 3.3 19:57:02 10° SW 20:02:57 78° SE 20:09:25 10° NE
NOSS 3-4 (C) 3.3 19:57:08 10° SW 20:03:04 78° SE 20:09:31 10° NE
Resurs 01 Rocket 1.5 20:03:27 69° SSE 20:03:58 87° ENE 20:08:27 10° NNW
Cosmos 614 Rocket 4.5 20:01:39 10° NNW 20:06:34 42° NE 20:06:44 42° ENE
Cosmos 1833 Rocket 2.9 20:04:23 10° NW 20:10:01 66° WSW 20:11:54 41° S
CZ-2C R/B 3.8 20:06:08 10° NNE 20:09:58 59° NE 20:09:58 59° NE
Cosmos 1470 4.1 20:12:29 31° NNE 20:12:29 31° NNE 20:14:36 10° NNE
Cosmos 2251 Rocket 3.4 20:07:31 10° NNW 20:12:57 84° ENE 20:13:44 65° SE
CENTAUR R/B 4.5 20:07:32 10° NW 20:14:33 33° WSW 20:22:00 10° S
ERS-1 Rocket 3.8 20:17:39 36° NE 20:17:39 36° NE 20:21:45 10° N
IGS 5A 4.1 20:18:58 48° NNE 20:18:58 48° NNE 20:22:09 10° N
ARIANE 5 R/B 2.8 20:20:05 63° NNE 20:20:05 63° NNE 20:23:51 10° NNW
SPOT 3 Rocket 4.1 20:20:50 35° SSW 20:22:43 55° W 20:27:49 10° NNW
ATLAS 2AS CENTAUR R/B 3.0 20:17:52 10° SW 20:25:52 90° NW 20:33:44 10° NE
ATLAS 3B R/B 3.1 20:20:51 10° NW 20:27:31 56° SW 20:29:50 39° S
Landsat 7 3.8 20:27:59 71° NNE 20:27:59 71° NNE 20:32:22 10° NNW
Meteor 1-21 Rocket 4.1 20:26:54 10° NNW 20:32:43 85° ENE 20:33:15 75° SSE
SPOT 5 3.7 20:33:48 44° NE 20:33:48 44° NE 20:38:16 10° N
Meteor 2-10 4.2 20:34:18 63° NE 20:34:18 63° NE 20:38:56 10° NNE
Cosmos 1655 Rocket 4.0 20:29:57 10° NNW 20:36:14 78° W 20:37:50 53° S
Cosmos 1461 3.7 20:35:28 10° NW 20:39:30 56° N 20:39:30 56° N
CZ-2C R/B 4.3 20:47:13 10° N 20:52:08 33° WNW 20:57:04 10° WSW
Lacrosse 5 rocket 2.8 20:53:27 10° WNW 20:56:20 40° WNW 20:56:20 40° WNW
Cosmos 2098 Rocket 4.4 20:53:55 10° NNW 21:00:32 54° W 21:01:45 46° SW
OBJECT-B 4.1 21:02:00 11° W 21:02:00 11° W 21:02:34 10° WNW
Cosmos 2082 Rocket 2.9 20:57:41 10° NW 21:03:02 45° WSW 21:03:08 45° WSW
Spot 2 Rocket 4.0 21:05:26 55° WNW 21:05:26 55° WNW 21:09:49 10° NNW
Meteor 2-21 4.4 21:03:42 10° NNW 21:09:42 81° NW 21:09:42 81° NW
COSMOS 2455 4.5 21:14:36 23° NE 21:14:36 23° NE 21:16:41 10° NE
Terra 3.2 21:21:44 35° N 21:21:44 35° N 21:24:31 10° NNW
Cosmos 1140 Rocket 4.4 21:17:48 10° NNW 21:21:18 44° NNW 21:21:18 44° NNW
Cosmos 407 Rocket 4.5 21:22:55 10° NNW 21:26:26 43° NW 21:26:26 43° NW
ATLAS CENTAUR R/B 4.1 21:26:44 10° NNW 21:27:26 14° NNW 21:27:26 14° NNW
Lacrosse 4 Rocket 4.1 21:28:10 10° WNW 21:29:10 14° W 21:29:10 14° W
Cosmos 2278 Rocket 3.3 21:33:01 23° WSW 21:36:08 42° NW 21:41:31 10° NNE
Resurs 01 Rocket 4.3 21:41:01 14° W 21:41:06 14° W 21:43:22 10° NW
USA 229 DEB 4.2 21:41:55 10° NW 21:48:53 54° NNE 21:49:03 54° NE
USA 229 4.2 21:42:01 10° NW 21:48:58 54° NNE 21:49:09 54° NE
NOSS 3-1 (A) 4.3 21:54:15 10° NW 22:01:06 54° NNE 22:01:23 53° NE
Cosmos 2227 Rocket 4.3 22:07:21 10° NNW 22:11:12 18° NNE 22:11:40 18° NE
ATLAS 2AS CENTAUR R/B 4.0 22:10:13 10° W 22:17:45 43° NNW 22:25:02 10° NE
Cosmos 1943 Rocket 4.3 22:24:03 19° NNE 22:24:03 19° NNE 22:25:35 10° NNE
NOSS 3-1 (C) 4.3 22:31:49 10° NW 22:37:24 60° NW 22:37:24 60° NW
CZ-4C R/B 3.9 22:45:17 30° NNE 22:45:17 30° NNE 22:48:54 10° NE
COSMOS 2455 4.3 22:57:42 34° NNW 22:57:42 34° NNW 23:02:38 10° NNE
Cosmos 2297 Rocket 4.0 22:53:01 10° NNW 22:56:26 27° NNE 22:56:26 27° NNE
Cosmos 2369 Rocket 4.1 23:10:31 25° NNE 23:10:31 25° NNE 23:12:47 10° NNE
SL-16 R/B 4.0 23:50:37 30° NE 23:50:37 30° NE 23:55:23 10° N
